Orbital Elements at Epoch 2459200.5 (2020-Dec-17.0) TDB
Reference: JPL 28 (heliocentric ecliptic J2000)
Element | Value | Uncertainty (1-sigma) | Units |
e | .2393150246548231 | 6.1159e-08 | |
a | 2.792061520338194 | 1.7746e-08 | au |
q | 2.123879248760676 | 1.6981e-07 | au |
i | 9.042309990980899 | 5.0261e-06 | deg |
node | 61.01355974054866 | 2.9557e-05 | deg |
peri | 320.7564387372653 | 3.1036e-05 | deg |
M | 208.7109971107575 | 1.2781e-05 | deg |
tp | 2459916.628176462279 (2022-Dec-03.12817646) | 6.5144e-05 | TDB |
period | 1704.064000707033 4.67 | 1.6246e-05 4.448e-08 | d yr |
n | .2112596709106186 | 2.0141e-09 | deg/d |
Q | 3.460243791915711 | 2.1993e-08 | au |
|
| | Orbit Determination Parameters
Additional Information
|